Terminal Aerodrome Forecast
Issued by NWS Charleston, WV

Current Version | Previous Version | Graphics & Text | Print | Product List | Glossary On
Versions: 1 2 3 4 5 6 7 8 9 10 11 12 13 14 15 16 17 18 19 20 21 22
000
FTUS41 KRLX 151500 AAA
TAFHTS
TAF AMD
KHTS 151529Z 1515/1612 12005KT P6SM SCT025 BKN250
     FM160500 17006KT 5SM -SHRA BR OVC040
     FM160900 18006KT 6SM BR OVC040
     FM161100 18007KT P6SM -SHRA OVC030=

USA.gov is the U.S. government's official web portal to all federal, state and local government web resources and services.